<?xml version="1.0" encoding="UTF-8" standalone="no" ?>
<gpx xmlns="http://www.topografix.com/GPX/1/1" xmlns:xsi="http://www.w3.org/2001/XMLSchema-instance" xsi:schemaLocation="http://www.topografix.com/GPX/1/1 http://www.topografix.com/GPX/1/1/gpx.xsd" version="1.1" creator="VisuGPX - https://www.visugpx.com">
  <metadata>
    <name>Balades et randos - Ecurie AMOEDO</name>
  </metadata>
  <trk>
    <name><![CDATA[Marnay]]></name>
    <trkseg>
      <trkpt lat="47.33147" lon="0.46908">
        <ele>41</ele>
        <time>2019-08-09T07:05:26.000Z</time>
      </trkpt>
      <trkpt lat="47.33136" lon="0.46919">
        <ele>40</ele>
        <time>2019-08-09T07:05:32.649Z</time>
      </trkpt>
      <trkpt lat="47.32973" lon="0.47002">
        <ele>39</ele>
        <time>2019-08-09T07:06:58.931Z</time>
      </trkpt>
      <trkpt lat="47.32833" lon="0.46915">
        <ele>40</ele>
        <time>2019-08-09T07:08:14.944Z</time>
      </trkpt>
      <trkpt lat="47.329" lon="0.46683">
        <ele>40</ele>
        <time>2019-08-09T07:09:40.472Z</time>
      </trkpt>
      <trkpt lat="47.32754" lon="0.46533">
        <ele>38</ele>
        <time>2019-08-09T07:11:09.495Z</time>
      </trkpt>
      <trkpt lat="47.32719" lon="0.46439">
        <ele>39</ele>
        <time>2019-08-09T07:11:45.870Z</time>
      </trkpt>
      <trkpt lat="47.3279" lon="0.46374">
        <ele>39</ele>
        <time>2019-08-09T07:12:27.681Z</time>
      </trkpt>
      <trkpt lat="47.32696" lon="0.46255">
        <ele>38</ele>
        <time>2019-08-09T07:13:29.659Z</time>
      </trkpt>
      <trkpt lat="47.32358" lon="0.45782">
        <ele>44</ele>
        <time>2019-08-09T07:17:22.772Z</time>
      </trkpt>
      <trkpt lat="47.32265" lon="0.45507">
        <ele>45</ele>
        <time>2019-08-09T07:19:07.012Z</time>
      </trkpt>
      <trkpt lat="47.32184" lon="0.45241">
        <ele>40</ele>
        <time>2019-08-09T07:20:45.923Z</time>
      </trkpt>
      <trkpt lat="47.3207" lon="0.44812">
        <ele>38</ele>
        <time>2019-08-09T07:23:22.221Z</time>
      </trkpt>
      <trkpt lat="47.31879" lon="0.44892">
        <ele>38</ele>
        <time>2019-08-09T07:25:01.571Z</time>
      </trkpt>
      <trkpt lat="47.31781" lon="0.44513">
        <ele>39</ele>
        <time>2019-08-09T07:27:19.169Z</time>
      </trkpt>
      <trkpt lat="47.31785" lon="0.44479">
        <ele>39</ele>
        <time>2019-08-09T07:27:30.875Z</time>
      </trkpt>
      <trkpt lat="47.31745" lon="0.44294">
        <ele>39</ele>
        <time>2019-08-09T07:28:36.746Z</time>
      </trkpt>
      <trkpt lat="47.31708" lon="0.4414">
        <ele>39</ele>
        <time>2019-08-09T07:29:32.170Z</time>
      </trkpt>
      <trkpt lat="47.31639" lon="0.43812">
        <ele>38</ele>
        <time>2019-08-09T07:31:28.670Z</time>
      </trkpt>
      <trkpt lat="47.3162" lon="0.43752">
        <ele>38</ele>
        <time>2019-08-09T07:31:51.135Z</time>
      </trkpt>
      <trkpt lat="47.31586" lon="0.43645">
        <ele>38</ele>
        <time>2019-08-09T07:32:31.222Z</time>
      </trkpt>
      <trkpt lat="47.31586" lon="0.436">
        <ele>38</ele>
        <time>2019-08-09T07:32:46.488Z</time>
      </trkpt>
      <trkpt lat="47.31618" lon="0.43518">
        <ele>37</ele>
        <time>2019-08-09T07:33:18.584Z</time>
      </trkpt>
      <trkpt lat="47.31607" lon="0.43436">
        <ele>37</ele>
        <time>2019-08-09T07:33:46.940Z</time>
      </trkpt>
      <trkpt lat="47.31556" lon="0.43387">
        <ele>37</ele>
        <time>2019-08-09T07:34:17.396Z</time>
      </trkpt>
      <trkpt lat="47.31538" lon="0.43367">
        <ele>37</ele>
        <time>2019-08-09T07:34:28.672Z</time>
      </trkpt>
      <trkpt lat="47.31482" lon="0.43224">
        <ele>38</ele>
        <time>2019-08-09T07:35:24.694Z</time>
      </trkpt>
      <trkpt lat="47.3142" lon="0.42941">
        <ele>38</ele>
        <time>2019-08-09T07:37:05.588Z</time>
      </trkpt>
      <trkpt lat="47.31402" lon="0.42952">
        <ele>38</ele>
        <time>2019-08-09T07:37:15.337Z</time>
      </trkpt>
      <trkpt lat="47.31315" lon="0.42815">
        <ele>39</ele>
        <time>2019-08-09T07:38:19.018Z</time>
      </trkpt>
      <trkpt lat="47.31308" lon="0.42764">
        <ele>39</ele>
        <time>2019-08-09T07:38:36.671Z</time>
      </trkpt>
      <trkpt lat="47.31299" lon="0.42724">
        <ele>39</ele>
        <time>2019-08-09T07:38:50.969Z</time>
      </trkpt>
      <trkpt lat="47.31274" lon="0.42687">
        <ele>39</ele>
        <time>2019-08-09T07:39:08.690Z</time>
      </trkpt>
      <trkpt lat="47.31234" lon="0.42589">
        <ele>38</ele>
        <time>2019-08-09T07:39:47.497Z</time>
      </trkpt>
      <trkpt lat="47.3125" lon="0.42567">
        <ele>38</ele>
        <time>2019-08-09T07:39:58.442Z</time>
      </trkpt>
      <trkpt lat="47.31234" lon="0.42531">
        <ele>38</ele>
        <time>2019-08-09T07:40:13.045Z</time>
      </trkpt>
      <trkpt lat="47.31202" lon="0.42506">
        <ele>38</ele>
        <time>2019-08-09T07:40:31.165Z</time>
      </trkpt>
      <trkpt lat="47.31174" lon="0.42494">
        <ele>37</ele>
        <time>2019-08-09T07:40:45.755Z</time>
      </trkpt>
      <trkpt lat="47.31137" lon="0.42457">
        <ele>38</ele>
        <time>2019-08-09T07:41:08.123Z</time>
      </trkpt>
      <trkpt lat="47.31111" lon="0.42414">
        <ele>39</ele>
        <time>2019-08-09T07:41:27.670Z</time>
      </trkpt>
      <trkpt lat="47.30985" lon="0.42311">
        <ele>38</ele>
        <time>2019-08-09T07:42:39.754Z</time>
      </trkpt>
      <trkpt lat="47.30843" lon="0.42171">
        <ele>38</ele>
        <time>2019-08-09T07:44:05.222Z</time>
      </trkpt>
      <trkpt lat="47.30792" lon="0.42109">
        <ele>39</ele>
        <time>2019-08-09T07:44:38.294Z</time>
      </trkpt>
      <trkpt lat="47.30716" lon="0.42051">
        <ele>38</ele>
        <time>2019-08-09T07:45:21.113Z</time>
      </trkpt>
      <trkpt lat="47.30694" lon="0.42014">
        <ele>38</ele>
        <time>2019-08-09T07:45:37.810Z</time>
      </trkpt>
      <trkpt lat="47.3067" lon="0.41913">
        <ele>37</ele>
        <time>2019-08-09T07:46:14.122Z</time>
      </trkpt>
      <trkpt lat="47.30624" lon="0.41806">
        <ele>37</ele>
        <time>2019-08-09T07:46:57.108Z</time>
      </trkpt>
      <trkpt lat="47.30559" lon="0.41724">
        <ele>37</ele>
        <time>2019-08-09T07:47:39.909Z</time>
      </trkpt>
      <trkpt lat="47.3047" lon="0.41549">
        <ele>37</ele>
        <time>2019-08-09T07:48:54.132Z</time>
      </trkpt>
      <trkpt lat="47.30422" lon="0.41503">
        <ele>39</ele>
        <time>2019-08-09T07:49:22.776Z</time>
      </trkpt>
      <trkpt lat="47.30374" lon="0.41458">
        <ele>40</ele>
        <time>2019-08-09T07:49:51.237Z</time>
      </trkpt>
      <trkpt lat="47.30357" lon="0.41308">
        <ele>38</ele>
        <time>2019-08-09T07:50:42.840Z</time>
      </trkpt>
      <trkpt lat="47.3028" lon="0.40332">
        <ele>40</ele>
        <time>2019-08-09T07:56:16.245Z</time>
      </trkpt>
      <trkpt lat="47.30209" lon="0.40137">
        <ele>40</ele>
        <time>2019-08-09T07:57:31.347Z</time>
      </trkpt>
      <trkpt lat="47.30129" lon="0.40004">
        <ele>39</ele>
        <time>2019-08-09T07:58:31.672Z</time>
      </trkpt>
      <trkpt lat="47.30103" lon="0.39982">
        <ele>39</ele>
        <time>2019-08-09T07:58:46.671Z</time>
      </trkpt>
      <trkpt lat="47.30042" lon="0.3992">
        <ele>39</ele>
        <time>2019-08-09T07:59:23.742Z</time>
      </trkpt>
      <trkpt lat="47.30039" lon="0.3986">
        <ele>38</ele>
        <time>2019-08-09T07:59:44.157Z</time>
      </trkpt>
      <trkpt lat="47.30026" lon="0.39774">
        <ele>37</ele>
        <time>2019-08-09T08:00:14.056Z</time>
      </trkpt>
      <trkpt lat="47.29913" lon="0.39673">
        <ele>37</ele>
        <time>2019-08-09T08:01:20.175Z</time>
      </trkpt>
      <trkpt lat="47.29826" lon="0.39562">
        <ele>36</ele>
        <time>2019-08-09T08:02:17.742Z</time>
      </trkpt>
      <trkpt lat="47.29746" lon="0.39444">
        <ele>37</ele>
        <time>2019-08-09T08:03:14.362Z</time>
      </trkpt>
      <trkpt lat="47.29689" lon="0.39345">
        <ele>38</ele>
        <time>2019-08-09T08:03:58.432Z</time>
      </trkpt>
      <trkpt lat="47.29677" lon="0.39216">
        <ele>38</ele>
        <time>2019-08-09T08:04:42.619Z</time>
      </trkpt>
      <trkpt lat="47.29599" lon="0.39066">
        <ele>39</ele>
        <time>2019-08-09T08:05:46.763Z</time>
      </trkpt>
      <trkpt lat="47.29583" lon="0.38971">
        <ele>38</ele>
        <time>2019-08-09T08:06:19.982Z</time>
      </trkpt>
      <trkpt lat="47.29562" lon="0.38755">
        <ele>38</ele>
        <time>2019-08-09T08:07:34.034Z</time>
      </trkpt>
      <trkpt lat="47.29475" lon="0.38623">
        <ele>38</ele>
        <time>2019-08-09T08:08:36.499Z</time>
      </trkpt>
      <trkpt lat="47.29472" lon="0.38593">
        <ele>38</ele>
        <time>2019-08-09T08:08:46.790Z</time>
      </trkpt>
      <trkpt lat="47.29465" lon="0.38565">
        <ele>38</ele>
        <time>2019-08-09T08:08:56.917Z</time>
      </trkpt>
      <trkpt lat="47.29456" lon="0.38537">
        <ele>38</ele>
        <time>2019-08-09T08:09:07.432Z</time>
      </trkpt>
      <trkpt lat="47.29447" lon="0.38511">
        <ele>38</ele>
        <time>2019-08-09T08:09:17.338Z</time>
      </trkpt>
      <trkpt lat="47.29438" lon="0.38487">
        <ele>39</ele>
        <time>2019-08-09T08:09:26.645Z</time>
      </trkpt>
      <trkpt lat="47.29429" lon="0.3846">
        <ele>38</ele>
        <time>2019-08-09T08:09:36.855Z</time>
      </trkpt>
      <trkpt lat="47.29426" lon="0.3843">
        <ele>39</ele>
        <time>2019-08-09T08:09:47.146Z</time>
      </trkpt>
      <trkpt lat="47.2944" lon="0.38411">
        <ele>38</ele>
        <time>2019-08-09T08:09:56.667Z</time>
      </trkpt>
      <trkpt lat="47.29453" lon="0.38392">
        <ele>37</ele>
        <time>2019-08-09T08:10:05.826Z</time>
      </trkpt>
      <trkpt lat="47.29455" lon="0.38363">
        <ele>37</ele>
        <time>2019-08-09T08:10:15.718Z</time>
      </trkpt>
      <trkpt lat="47.2945" lon="0.38335">
        <ele>37</ele>
        <time>2019-08-09T08:10:25.544Z</time>
      </trkpt>
      <trkpt lat="47.29446" lon="0.38308">
        <ele>37</ele>
        <time>2019-08-09T08:10:34.923Z</time>
      </trkpt>
      <trkpt lat="47.29441" lon="0.38282">
        <ele>37</ele>
        <time>2019-08-09T08:10:44.094Z</time>
      </trkpt>
      <trkpt lat="47.29434" lon="0.38254">
        <ele>37</ele>
        <time>2019-08-09T08:10:54.221Z</time>
      </trkpt>
      <trkpt lat="47.2943" lon="0.38225">
        <ele>37</ele>
        <time>2019-08-09T08:11:04.264Z</time>
      </trkpt>
      <trkpt lat="47.2943" lon="0.38198">
        <ele>37</ele>
        <time>2019-08-09T08:11:13.427Z</time>
      </trkpt>
      <trkpt lat="47.29407" lon="0.38194">
        <ele>38</ele>
        <time>2019-08-09T08:11:25.015Z</time>
      </trkpt>
      <trkpt lat="47.29388" lon="0.38195">
        <ele>38</ele>
        <time>2019-08-09T08:11:34.528Z</time>
      </trkpt>
      <trkpt lat="47.29368" lon="0.38197">
        <ele>38</ele>
        <time>2019-08-09T08:11:44.559Z</time>
      </trkpt>
      <trkpt lat="47.29348" lon="0.38199">
        <ele>38</ele>
        <time>2019-08-09T08:11:54.590Z</time>
      </trkpt>
      <trkpt lat="47.29331" lon="0.38205">
        <ele>37</ele>
        <time>2019-08-09T08:12:03.337Z</time>
      </trkpt>
      <trkpt lat="47.29312" lon="0.38211">
        <ele>37</ele>
        <time>2019-08-09T08:12:13.060Z</time>
      </trkpt>
      <trkpt lat="47.29293" lon="0.3821">
        <ele>37</ele>
        <time>2019-08-09T08:12:22.573Z</time>
      </trkpt>
      <trkpt lat="47.29273" lon="0.38197">
        <ele>37</ele>
        <time>2019-08-09T08:12:33.510Z</time>
      </trkpt>
      <trkpt lat="47.29257" lon="0.38186">
        <ele>37</ele>
        <time>2019-08-09T08:12:42.344Z</time>
      </trkpt>
      <trkpt lat="47.29241" lon="0.38172">
        <ele>37</ele>
        <time>2019-08-09T08:12:51.654Z</time>
      </trkpt>
      <trkpt lat="47.29226" lon="0.38157">
        <ele>37</ele>
        <time>2019-08-09T08:13:00.723Z</time>
      </trkpt>
      <trkpt lat="47.29209" lon="0.38145">
        <ele>37</ele>
        <time>2019-08-09T08:13:10.154Z</time>
      </trkpt>
      <trkpt lat="47.2919" lon="0.38134">
        <ele>37</ele>
        <time>2019-08-09T08:13:20.368Z</time>
      </trkpt>
      <trkpt lat="47.29171" lon="0.3814">
        <ele>37</ele>
        <time>2019-08-09T08:13:30.091Z</time>
      </trkpt>
      <trkpt lat="47.29155" lon="0.38155">
        <ele>38</ele>
        <time>2019-08-09T08:13:39.579Z</time>
      </trkpt>
      <trkpt lat="47.2914" lon="0.38174">
        <ele>37</ele>
        <time>2019-08-09T08:13:49.474Z</time>
      </trkpt>
      <trkpt lat="47.29124" lon="0.38191">
        <ele>38</ele>
        <time>2019-08-09T08:13:59.342Z</time>
      </trkpt>
      <trkpt lat="47.29111" lon="0.3821">
        <ele>38</ele>
        <time>2019-08-09T08:14:08.501Z</time>
      </trkpt>
      <trkpt lat="47.29099" lon="0.38231">
        <ele>37</ele>
        <time>2019-08-09T08:14:17.820Z</time>
      </trkpt>
      <trkpt lat="47.29083" lon="0.38249">
        <ele>37</ele>
        <time>2019-08-09T08:14:27.891Z</time>
      </trkpt>
      <trkpt lat="47.29063" lon="0.38262">
        <ele>38</ele>
        <time>2019-08-09T08:14:38.828Z</time>
      </trkpt>
      <trkpt lat="47.29041" lon="0.38267">
        <ele>39</ele>
        <time>2019-08-09T08:14:49.966Z</time>
      </trkpt>
      <trkpt lat="47.29024" lon="0.38275">
        <ele>39</ele>
        <time>2019-08-09T08:14:58.895Z</time>
      </trkpt>
      <trkpt lat="47.29004" lon="0.38273">
        <ele>39</ele>
        <time>2019-08-09T08:15:08.926Z</time>
      </trkpt>
      <trkpt lat="47.28986" lon="0.38268">
        <ele>40</ele>
        <time>2019-08-09T08:15:18.091Z</time>
      </trkpt>
      <trkpt lat="47.28968" lon="0.38257">
        <ele>40</ele>
        <time>2019-08-09T08:15:27.841Z</time>
      </trkpt>
      <trkpt lat="47.28954" lon="0.38239">
        <ele>40</ele>
        <time>2019-08-09T08:15:37.136Z</time>
      </trkpt>
      <trkpt lat="47.28937" lon="0.3822">
        <ele>40</ele>
        <time>2019-08-09T08:15:47.810Z</time>
      </trkpt>
      <trkpt lat="47.28921" lon="0.38207">
        <ele>40</ele>
        <time>2019-08-09T08:15:56.951Z</time>
      </trkpt>
      <trkpt lat="47.28904" lon="0.38197">
        <ele>38</ele>
        <time>2019-08-09T08:16:06.110Z</time>
      </trkpt>
      <trkpt lat="47.28887" lon="0.38187">
        <ele>38</ele>
        <time>2019-08-09T08:16:15.269Z</time>
      </trkpt>
      <trkpt lat="47.28867" lon="0.38178">
        <ele>38</ele>
        <time>2019-08-09T08:16:25.732Z</time>
      </trkpt>
      <trkpt lat="47.28848" lon="0.38173">
        <ele>38</ele>
        <time>2019-08-09T08:16:35.389Z</time>
      </trkpt>
      <trkpt lat="47.28827" lon="0.38171">
        <ele>38</ele>
        <time>2019-08-09T08:16:45.919Z</time>
      </trkpt>
      <trkpt lat="47.28809" lon="0.38161">
        <ele>38</ele>
        <time>2019-08-09T08:16:55.544Z</time>
      </trkpt>
      <trkpt lat="47.2879" lon="0.38153">
        <ele>37</ele>
        <time>2019-08-09T08:17:05.431Z</time>
      </trkpt>
      <trkpt lat="47.28772" lon="0.38144">
        <ele>37</ele>
        <time>2019-08-09T08:17:14.942Z</time>
      </trkpt>
      <trkpt lat="47.28754" lon="0.38136">
        <ele>37</ele>
        <time>2019-08-09T08:17:24.349Z</time>
      </trkpt>
      <trkpt lat="47.28736" lon="0.38141">
        <ele>37</ele>
        <time>2019-08-09T08:17:33.514Z</time>
      </trkpt>
      <trkpt lat="47.28725" lon="0.38163">
        <ele>37</ele>
        <time>2019-08-09T08:17:42.791Z</time>
      </trkpt>
      <trkpt lat="47.28712" lon="0.38184">
        <ele>37</ele>
        <time>2019-08-09T08:17:52.441Z</time>
      </trkpt>
      <trkpt lat="47.28704" lon="0.38209">
        <ele>37</ele>
        <time>2019-08-09T08:18:01.823Z</time>
      </trkpt>
      <trkpt lat="47.28692" lon="0.38234">
        <ele>37</ele>
        <time>2019-08-09T08:18:12.218Z</time>
      </trkpt>
      <trkpt lat="47.28679" lon="0.38255">
        <ele>38</ele>
        <time>2019-08-09T08:18:21.868Z</time>
      </trkpt>
      <trkpt lat="47.28665" lon="0.38274">
        <ele>40</ele>
        <time>2019-08-09T08:18:31.390Z</time>
      </trkpt>
      <trkpt lat="47.28663" lon="0.383">
        <ele>40</ele>
        <time>2019-08-09T08:18:40.272Z</time>
      </trkpt>
      <trkpt lat="47.28657" lon="0.38329">
        <ele>40</ele>
        <time>2019-08-09T08:18:50.563Z</time>
      </trkpt>
      <trkpt lat="47.28652" lon="0.38356">
        <ele>40</ele>
        <time>2019-08-09T08:19:00.063Z</time>
      </trkpt>
      <trkpt lat="47.28646" lon="0.38381">
        <ele>40</ele>
        <time>2019-08-09T08:19:09.064Z</time>
      </trkpt>
      <trkpt lat="47.28645" lon="0.38411">
        <ele>40</ele>
        <time>2019-08-09T08:19:19.259Z</time>
      </trkpt>
      <trkpt lat="47.2864" lon="0.38442">
        <ele>40</ele>
        <time>2019-08-09T08:19:30.074Z</time>
      </trkpt>
      <trkpt lat="47.28634" lon="0.38473">
        <ele>40</ele>
        <time>2019-08-09T08:19:41.016Z</time>
      </trkpt>
      <trkpt lat="47.2863" lon="0.38501">
        <ele>40</ele>
        <time>2019-08-09T08:19:50.728Z</time>
      </trkpt>
      <trkpt lat="47.28634" lon="0.38529">
        <ele>40</ele>
        <time>2019-08-09T08:20:00.440Z</time>
      </trkpt>
      <trkpt lat="47.28637" lon="0.38556">
        <ele>40</ele>
        <time>2019-08-09T08:20:09.727Z</time>
      </trkpt>
      <trkpt lat="47.28638" lon="0.38586">
        <ele>39</ele>
        <time>2019-08-09T08:20:19.922Z</time>
      </trkpt>
      <trkpt lat="47.28634" lon="0.38616">
        <ele>39</ele>
        <time>2019-08-09T08:20:30.300Z</time>
      </trkpt>
      <trkpt lat="47.28626" lon="0.38643">
        <ele>39</ele>
        <time>2019-08-09T08:20:40.301Z</time>
      </trkpt>
      <trkpt lat="47.28615" lon="0.38665">
        <ele>39</ele>
        <time>2019-08-09T08:20:49.578Z</time>
      </trkpt>
      <trkpt lat="47.286" lon="0.38683">
        <ele>39</ele>
        <time>2019-08-09T08:20:59.256Z</time>
      </trkpt>
      <trkpt lat="47.28582" lon="0.38695">
        <ele>39</ele>
        <time>2019-08-09T08:21:09.141Z</time>
      </trkpt>
      <trkpt lat="47.28564" lon="0.38703">
        <ele>39</ele>
        <time>2019-08-09T08:21:18.548Z</time>
      </trkpt>
      <trkpt lat="47.28546" lon="0.38714">
        <ele>38</ele>
        <time>2019-08-09T08:21:28.298Z</time>
      </trkpt>
      <trkpt lat="47.28527" lon="0.38717">
        <ele>38</ele>
        <time>2019-08-09T08:21:37.860Z</time>
      </trkpt>
      <trkpt lat="47.28509" lon="0.38722">
        <ele>38</ele>
        <time>2019-08-09T08:21:47.025Z</time>
      </trkpt>
      <trkpt lat="47.28502" lon="0.38747">
        <ele>37</ele>
        <time>2019-08-09T08:21:56.205Z</time>
      </trkpt>
      <trkpt lat="47.28499" lon="0.38776">
        <ele>38</ele>
        <time>2019-08-09T08:22:06.162Z</time>
      </trkpt>
      <trkpt lat="47.28493" lon="0.38802">
        <ele>38</ele>
        <time>2019-08-09T08:22:15.484Z</time>
      </trkpt>
      <trkpt lat="47.28478" lon="0.38819">
        <ele>38</ele>
        <time>2019-08-09T08:22:24.951Z</time>
      </trkpt>
      <trkpt lat="47.2846" lon="0.38826">
        <ele>38</ele>
        <time>2019-08-09T08:22:34.266Z</time>
      </trkpt>
      <trkpt lat="47.28441" lon="0.3883">
        <ele>39</ele>
        <time>2019-08-09T08:22:43.870Z</time>
      </trkpt>
      <trkpt lat="47.28425" lon="0.38817">
        <ele>40</ele>
        <time>2019-08-09T08:22:53.012Z</time>
      </trkpt>
      <trkpt lat="47.28407" lon="0.38811">
        <ele>40</ele>
        <time>2019-08-09T08:23:02.246Z</time>
      </trkpt>
      <trkpt lat="47.2839" lon="0.38799">
        <ele>40</ele>
        <time>2019-08-09T08:23:11.677Z</time>
      </trkpt>
      <trkpt lat="47.28371" lon="0.38796">
        <ele>40</ele>
        <time>2019-08-09T08:23:21.239Z</time>
      </trkpt>
      <trkpt lat="47.2835" lon="0.388">
        <ele>40</ele>
        <time>2019-08-09T08:23:31.834Z</time>
      </trkpt>
      <trkpt lat="47.28339" lon="0.38821">
        <ele>39</ele>
        <time>2019-08-09T08:23:40.840Z</time>
      </trkpt>
      <trkpt lat="47.28339" lon="0.38848">
        <ele>39</ele>
        <time>2019-08-09T08:23:50.005Z</time>
      </trkpt>
      <trkpt lat="47.28346" lon="0.38874">
        <ele>39</ele>
        <time>2019-08-09T08:23:59.500Z</time>
      </trkpt>
      <trkpt lat="47.2835" lon="0.38902">
        <ele>39</ele>
        <time>2019-08-09T08:24:09.213Z</time>
      </trkpt>
      <trkpt lat="47.28356" lon="0.38927">
        <ele>38</ele>
        <time>2019-08-09T08:24:18.214Z</time>
      </trkpt>
      <trkpt lat="47.28363" lon="0.38952">
        <ele>38</ele>
        <time>2019-08-09T08:24:27.394Z</time>
      </trkpt>
      <trkpt lat="47.28372" lon="0.38976">
        <ele>38</ele>
        <time>2019-08-09T08:24:36.702Z</time>
      </trkpt>
      <trkpt lat="47.28385" lon="0.38999">
        <ele>38</ele>
        <time>2019-08-09T08:24:46.864Z</time>
      </trkpt>
      <trkpt lat="47.28401" lon="0.39017">
        <ele>38</ele>
        <time>2019-08-09T08:24:56.935Z</time>
      </trkpt>
      <trkpt lat="47.28416" lon="0.39032">
        <ele>38</ele>
        <time>2019-08-09T08:25:06.005Z</time>
      </trkpt>
      <trkpt lat="47.28433" lon="0.3905">
        <ele>38</ele>
        <time>2019-08-09T08:25:16.478Z</time>
      </trkpt>
      <trkpt lat="47.28447" lon="0.39068">
        <ele>38</ele>
        <time>2019-08-09T08:25:25.773Z</time>
      </trkpt>
      <trkpt lat="47.28467" lon="0.39079">
        <ele>38</ele>
        <time>2019-08-09T08:25:36.454Z</time>
      </trkpt>
      <trkpt lat="47.28499" lon="0.39092">
        <ele>39</ele>
        <time>2019-08-09T08:25:53.063Z</time>
      </trkpt>
      <trkpt lat="47.28526" lon="0.39099">
        <ele>39</ele>
        <time>2019-08-09T08:26:06.781Z</time>
      </trkpt>
      <trkpt lat="47.28544" lon="0.39109">
        <ele>39</ele>
        <time>2019-08-09T08:26:16.406Z</time>
      </trkpt>
      <trkpt lat="47.28564" lon="0.39118">
        <ele>39</ele>
        <time>2019-08-09T08:26:26.869Z</time>
      </trkpt>
      <trkpt lat="47.28581" lon="0.39129">
        <ele>39</ele>
        <time>2019-08-09T08:26:36.159Z</time>
      </trkpt>
      <trkpt lat="47.28599" lon="0.39141">
        <ele>39</ele>
        <time>2019-08-09T08:26:46.044Z</time>
      </trkpt>
      <trkpt lat="47.28616" lon="0.39156">
        <ele>38</ele>
        <time>2019-08-09T08:26:55.958Z</time>
      </trkpt>
      <trkpt lat="47.28627" lon="0.39181">
        <ele>38</ele>
        <time>2019-08-09T08:27:06.072Z</time>
      </trkpt>
      <trkpt lat="47.28643" lon="0.39195">
        <ele>37</ele>
        <time>2019-08-09T08:27:15.382Z</time>
      </trkpt>
      <trkpt lat="47.2866" lon="0.39211">
        <ele>37</ele>
        <time>2019-08-09T08:27:25.474Z</time>
      </trkpt>
      <trkpt lat="47.28676" lon="0.39224">
        <ele>36</ele>
        <time>2019-08-09T08:27:34.615Z</time>
      </trkpt>
      <trkpt lat="47.28691" lon="0.3924">
        <ele>36</ele>
        <time>2019-08-09T08:27:43.879Z</time>
      </trkpt>
      <trkpt lat="47.28708" lon="0.39254">
        <ele>37</ele>
        <time>2019-08-09T08:27:53.623Z</time>
      </trkpt>
      <trkpt lat="47.28725" lon="0.39266">
        <ele>37</ele>
        <time>2019-08-09T08:28:03.054Z</time>
      </trkpt>
      <trkpt lat="47.28755" lon="0.39294">
        <ele>37</ele>
        <time>2019-08-09T08:28:20.821Z</time>
      </trkpt>
      <trkpt lat="47.28784" lon="0.3931">
        <ele>37</ele>
        <time>2019-08-09T08:28:36.315Z</time>
      </trkpt>
      <trkpt lat="47.28797" lon="0.39333">
        <ele>37</ele>
        <time>2019-08-09T08:28:46.476Z</time>
      </trkpt>
      <trkpt lat="47.2881" lon="0.39355">
        <ele>38</ele>
        <time>2019-08-09T08:28:56.379Z</time>
      </trkpt>
      <trkpt lat="47.28823" lon="0.39374">
        <ele>38</ele>
        <time>2019-08-09T08:29:05.539Z</time>
      </trkpt>
      <trkpt lat="47.28837" lon="0.39389">
        <ele>37</ele>
        <time>2019-08-09T08:29:14.199Z</time>
      </trkpt>
      <trkpt lat="47.28854" lon="0.39408">
        <ele>37</ele>
        <time>2019-08-09T08:29:24.874Z</time>
      </trkpt>
      <trkpt lat="47.2885" lon="0.39435">
        <ele>37</ele>
        <time>2019-08-09T08:29:34.254Z</time>
      </trkpt>
      <trkpt lat="47.28834" lon="0.39458">
        <ele>38</ele>
        <time>2019-08-09T08:29:45.436Z</time>
      </trkpt>
      <trkpt lat="47.28824" lon="0.39481">
        <ele>39</ele>
        <time>2019-08-09T08:29:54.708Z</time>
      </trkpt>
      <trkpt lat="47.28811" lon="0.39501">
        <ele>40</ele>
        <time>2019-08-09T08:30:04.110Z</time>
      </trkpt>
      <trkpt lat="47.28803" lon="0.39526">
        <ele>41</ele>
        <time>2019-08-09T08:30:13.492Z</time>
      </trkpt>
      <trkpt lat="47.28792" lon="0.39549">
        <ele>41</ele>
        <time>2019-08-09T08:30:23.044Z</time>
      </trkpt>
      <trkpt lat="47.2878" lon="0.3957">
        <ele>42</ele>
        <time>2019-08-09T08:30:32.364Z</time>
      </trkpt>
      <trkpt lat="47.2877" lon="0.39596">
        <ele>43</ele>
        <time>2019-08-09T08:30:42.509Z</time>
      </trkpt>
      <trkpt lat="47.28758" lon="0.3962">
        <ele>43</ele>
        <time>2019-08-09T08:30:52.629Z</time>
      </trkpt>
      <trkpt lat="47.28745" lon="0.3965">
        <ele>45</ele>
        <time>2019-08-09T08:31:04.712Z</time>
      </trkpt>
      <trkpt lat="47.28725" lon="0.39702">
        <ele>47</ele>
        <time>2019-08-09T08:31:25.001Z</time>
      </trkpt>
      <trkpt lat="47.28681" lon="0.39803">
        <ele>51</ele>
        <time>2019-08-09T08:32:05.743Z</time>
      </trkpt>
      <trkpt lat="47.28769" lon="0.39889">
        <ele>51</ele>
        <time>2019-08-09T08:32:58.573Z</time>
      </trkpt>
      <trkpt lat="47.28763" lon="0.39909">
        <ele>52</ele>
        <time>2019-08-09T08:33:05.996Z</time>
      </trkpt>
      <trkpt lat="47.28664" lon="0.40187">
        <ele>71</ele>
        <time>2019-08-09T08:34:52.567Z</time>
      </trkpt>
      <trkpt lat="47.28677" lon="0.40197">
        <ele>69</ele>
        <time>2019-08-09T08:34:59.904Z</time>
      </trkpt>
      <trkpt lat="47.28684" lon="0.40203">
        <ele>69</ele>
        <time>2019-08-09T08:35:03.956Z</time>
      </trkpt>
      <trkpt lat="47.2874" lon="0.40274">
        <ele>70</ele>
        <time>2019-08-09T08:35:40.914Z</time>
      </trkpt>
      <trkpt lat="47.28802" lon="0.40189">
        <ele>63</ele>
        <time>2019-08-09T08:36:23.279Z</time>
      </trkpt>
      <trkpt lat="47.28882" lon="0.40193">
        <ele>58</ele>
        <time>2019-08-09T08:37:03.332Z</time>
      </trkpt>
      <trkpt lat="47.28929" lon="0.40179">
        <ele>54</ele>
        <time>2019-08-09T08:37:27.325Z</time>
      </trkpt>
      <trkpt lat="47.28957" lon="0.40158">
        <ele>52</ele>
        <time>2019-08-09T08:37:43.044Z</time>
      </trkpt>
      <trkpt lat="47.28982" lon="0.40137">
        <ele>51</ele>
        <time>2019-08-09T08:37:57.441Z</time>
      </trkpt>
      <trkpt lat="47.29022" lon="0.401">
        <ele>47</ele>
        <time>2019-08-09T08:38:21.069Z</time>
      </trkpt>
      <trkpt lat="47.29063" lon="0.40173">
        <ele>48</ele>
        <time>2019-08-09T08:38:53.236Z</time>
      </trkpt>
      <trkpt lat="47.29082" lon="0.40258">
        <ele>50</ele>
        <time>2019-08-09T08:39:23.611Z</time>
      </trkpt>
      <trkpt lat="47.29094" lon="0.40343">
        <ele>51</ele>
        <time>2019-08-09T08:39:53.078Z</time>
      </trkpt>
      <trkpt lat="47.29114" lon="0.40421">
        <ele>51</ele>
        <time>2019-08-09T08:40:21.379Z</time>
      </trkpt>
      <trkpt lat="47.29161" lon="0.4051">
        <ele>52</ele>
        <time>2019-08-09T08:40:59.661Z</time>
      </trkpt>
      <trkpt lat="47.29163" lon="0.40537">
        <ele>53</ele>
        <time>2019-08-09T08:41:08.879Z</time>
      </trkpt>
      <trkpt lat="47.29173" lon="0.40564">
        <ele>51</ele>
        <time>2019-08-09T08:41:19.320Z</time>
      </trkpt>
      <trkpt lat="47.29181" lon="0.40591">
        <ele>52</ele>
        <time>2019-08-09T08:41:29.320Z</time>
      </trkpt>
      <trkpt lat="47.29191" lon="0.40617">
        <ele>52</ele>
        <time>2019-08-09T08:41:39.464Z</time>
      </trkpt>
      <trkpt lat="47.292" lon="0.40644">
        <ele>52</ele>
        <time>2019-08-09T08:41:49.674Z</time>
      </trkpt>
      <trkpt lat="47.29207" lon="0.40669">
        <ele>53</ele>
        <time>2019-08-09T08:41:58.853Z</time>
      </trkpt>
      <trkpt lat="47.29216" lon="0.40692">
        <ele>53</ele>
        <time>2019-08-09T08:42:07.865Z</time>
      </trkpt>
      <trkpt lat="47.29226" lon="0.40719">
        <ele>54</ele>
        <time>2019-08-09T08:42:18.306Z</time>
      </trkpt>
      <trkpt lat="47.29235" lon="0.40744">
        <ele>54</ele>
        <time>2019-08-09T08:42:27.912Z</time>
      </trkpt>
      <trkpt lat="47.29243" lon="0.40768">
        <ele>54</ele>
        <time>2019-08-09T08:42:36.988Z</time>
      </trkpt>
      <trkpt lat="47.29253" lon="0.40791">
        <ele>51</ele>
        <time>2019-08-09T08:42:46.260Z</time>
      </trkpt>
      <trkpt lat="47.29264" lon="0.40814">
        <ele>51</ele>
        <time>2019-08-09T08:42:55.811Z</time>
      </trkpt>
      <trkpt lat="47.29273" lon="0.40838">
        <ele>52</ele>
        <time>2019-08-09T08:43:05.118Z</time>
      </trkpt>
      <trkpt lat="47.29284" lon="0.4086">
        <ele>52</ele>
        <time>2019-08-09T08:43:14.394Z</time>
      </trkpt>
      <trkpt lat="47.29294" lon="0.40883">
        <ele>52</ele>
        <time>2019-08-09T08:43:23.666Z</time>
      </trkpt>
      <trkpt lat="47.29307" lon="0.40903">
        <ele>52</ele>
        <time>2019-08-09T08:43:33.067Z</time>
      </trkpt>
      <trkpt lat="47.29324" lon="0.40892">
        <ele>51</ele>
        <time>2019-08-09T08:43:42.357Z</time>
      </trkpt>
      <trkpt lat="47.2934" lon="0.4088">
        <ele>49</ele>
        <time>2019-08-09T08:43:51.339Z</time>
      </trkpt>
      <trkpt lat="47.29353" lon="0.40902">
        <ele>49</ele>
        <time>2019-08-09T08:44:01.241Z</time>
      </trkpt>
      <trkpt lat="47.29363" lon="0.40929">
        <ele>50</ele>
        <time>2019-08-09T08:44:11.681Z</time>
      </trkpt>
      <trkpt lat="47.29375" lon="0.40953">
        <ele>50</ele>
        <time>2019-08-09T08:44:21.800Z</time>
      </trkpt>
      <trkpt lat="47.29388" lon="0.40976">
        <ele>50</ele>
        <time>2019-08-09T08:44:31.961Z</time>
      </trkpt>
      <trkpt lat="47.29398" lon="0.40999">
        <ele>50</ele>
        <time>2019-08-09T08:44:41.233Z</time>
      </trkpt>
      <trkpt lat="47.29411" lon="0.41019">
        <ele>51</ele>
        <time>2019-08-09T08:44:50.634Z</time>
      </trkpt>
      <trkpt lat="47.29423" lon="0.4104">
        <ele>49</ele>
        <time>2019-08-09T08:44:59.953Z</time>
      </trkpt>
      <trkpt lat="47.29437" lon="0.41059">
        <ele>49</ele>
        <time>2019-08-09T08:45:09.474Z</time>
      </trkpt>
      <trkpt lat="47.2945" lon="0.41078">
        <ele>49</ele>
        <time>2019-08-09T08:45:18.633Z</time>
      </trkpt>
      <trkpt lat="47.29463" lon="0.41101">
        <ele>50</ele>
        <time>2019-08-09T08:45:28.794Z</time>
      </trkpt>
      <trkpt lat="47.29473" lon="0.41124">
        <ele>50</ele>
        <time>2019-08-09T08:45:38.066Z</time>
      </trkpt>
      <trkpt lat="47.29485" lon="0.41146">
        <ele>50</ele>
        <time>2019-08-09T08:45:47.647Z</time>
      </trkpt>
      <trkpt lat="47.29494" lon="0.4117">
        <ele>50</ele>
        <time>2019-08-09T08:45:56.954Z</time>
      </trkpt>
      <trkpt lat="47.29504" lon="0.41195">
        <ele>49</ele>
        <time>2019-08-09T08:46:06.804Z</time>
      </trkpt>
      <trkpt lat="47.29512" lon="0.41219">
        <ele>50</ele>
        <time>2019-08-09T08:46:15.879Z</time>
      </trkpt>
      <trkpt lat="47.29522" lon="0.41243">
        <ele>50</ele>
        <time>2019-08-09T08:46:25.438Z</time>
      </trkpt>
      <trkpt lat="47.29535" lon="0.41265">
        <ele>51</ele>
        <time>2019-08-09T08:46:35.340Z</time>
      </trkpt>
      <trkpt lat="47.29545" lon="0.41289">
        <ele>51</ele>
        <time>2019-08-09T08:46:44.899Z</time>
      </trkpt>
      <trkpt lat="47.29565" lon="0.41314">
        <ele>51</ele>
        <time>2019-08-09T08:46:58.019Z</time>
      </trkpt>
      <trkpt lat="47.29601" lon="0.41375">
        <ele>50</ele>
        <time>2019-08-09T08:47:25.460Z</time>
      </trkpt>
      <trkpt lat="47.29629" lon="0.41429">
        <ele>51</ele>
        <time>2019-08-09T08:47:48.528Z</time>
      </trkpt>
      <trkpt lat="47.29727" lon="0.41596">
        <ele>48</ele>
        <time>2019-08-09T08:49:03.471Z</time>
      </trkpt>
      <trkpt lat="47.29743" lon="0.41602">
        <ele>48</ele>
        <time>2019-08-09T08:49:11.732Z</time>
      </trkpt>
      <trkpt lat="47.29742" lon="0.4166">
        <ele>47</ele>
        <time>2019-08-09T08:49:31.421Z</time>
      </trkpt>
      <trkpt lat="47.29774" lon="0.41681">
        <ele>46</ele>
        <time>2019-08-09T08:49:48.947Z</time>
      </trkpt>
      <trkpt lat="47.29787" lon="0.41717">
        <ele>46</ele>
        <time>2019-08-09T08:50:02.787Z</time>
      </trkpt>
      <trkpt lat="47.29806" lon="0.41744">
        <ele>46</ele>
        <time>2019-08-09T08:50:15.991Z</time>
      </trkpt>
      <trkpt lat="47.29826" lon="0.41726">
        <ele>45</ele>
        <time>2019-08-09T08:50:27.715Z</time>
      </trkpt>
      <trkpt lat="47.29848" lon="0.41685">
        <ele>43</ele>
        <time>2019-08-09T08:50:45.456Z</time>
      </trkpt>
      <trkpt lat="47.29879" lon="0.41682">
        <ele>42</ele>
        <time>2019-08-09T08:51:01.001Z</time>
      </trkpt>
      <trkpt lat="47.29969" lon="0.41924">
        <ele>43</ele>
        <time>2019-08-09T08:52:34.659Z</time>
      </trkpt>
      <trkpt lat="47.30306" lon="0.41662">
        <ele>38</ele>
        <time>2019-08-09T08:55:45.287Z</time>
      </trkpt>
      <trkpt lat="47.30347" lon="0.418">
        <ele>38</ele>
        <time>2019-08-09T08:56:36.409Z</time>
      </trkpt>
      <trkpt lat="47.30434" lon="0.41941">
        <ele>39</ele>
        <time>2019-08-09T08:57:41.093Z</time>
      </trkpt>
      <trkpt lat="47.30564" lon="0.42501">
        <ele>39</ele>
        <time>2019-08-09T09:01:01.929Z</time>
      </trkpt>
      <trkpt lat="47.30766" lon="0.42686">
        <ele>38</ele>
        <time>2019-08-09T09:03:00.910Z</time>
      </trkpt>
      <trkpt lat="47.30813" lon="0.42757">
        <ele>39</ele>
        <time>2019-08-09T09:03:34.576Z</time>
      </trkpt>
      <trkpt lat="47.30963" lon="0.43147">
        <ele>42</ele>
        <time>2019-08-09T09:06:06.700Z</time>
      </trkpt>
      <trkpt lat="47.30966" lon="0.43248">
        <ele>41</ele>
        <time>2019-08-09T09:06:41.000Z</time>
      </trkpt>
      <trkpt lat="47.30955" lon="0.43304">
        <ele>40</ele>
        <time>2019-08-09T09:07:00.781Z</time>
      </trkpt>
      <trkpt lat="47.30948" lon="0.43578">
        <ele>39</ele>
        <time>2019-08-09T09:08:33.808Z</time>
      </trkpt>
      <trkpt lat="47.31034" lon="0.43767">
        <ele>39</ele>
        <time>2019-08-09T09:09:51.032Z</time>
      </trkpt>
      <trkpt lat="47.31095" lon="0.43799">
        <ele>38</ele>
        <time>2019-08-09T09:10:23.428Z</time>
      </trkpt>
      <trkpt lat="47.31262" lon="0.43965">
        <ele>39</ele>
        <time>2019-08-09T09:12:04.197Z</time>
      </trkpt>
      <trkpt lat="47.31315" lon="0.44025">
        <ele>39</ele>
        <time>2019-08-09T09:12:37.628Z</time>
      </trkpt>
      <trkpt lat="47.31369" lon="0.44306">
        <ele>39</ele>
        <time>2019-08-09T09:14:16.712Z</time>
      </trkpt>
      <trkpt lat="47.31393" lon="0.44387">
        <ele>40</ele>
        <time>2019-08-09T09:14:46.701Z</time>
      </trkpt>
      <trkpt lat="47.31492" lon="0.44493">
        <ele>40</ele>
        <time>2019-08-09T09:15:47.914Z</time>
      </trkpt>
      <trkpt lat="47.31628" lon="0.44716">
        <ele>42</ele>
        <time>2019-08-09T09:17:29.668Z</time>
      </trkpt>
      <trkpt lat="47.31632" lon="0.44776">
        <ele>42</ele>
        <time>2019-08-09T09:17:50.120Z</time>
      </trkpt>
      <trkpt lat="47.31598" lon="0.45042">
        <ele>42</ele>
        <time>2019-08-09T09:19:21.945Z</time>
      </trkpt>
      <trkpt lat="47.3153" lon="0.45246">
        <ele>40</ele>
        <time>2019-08-09T09:20:39.061Z</time>
      </trkpt>
      <trkpt lat="47.31527" lon="0.45359">
        <ele>40</ele>
        <time>2019-08-09T09:21:17.424Z</time>
      </trkpt>
      <trkpt lat="47.3153" lon="0.45473">
        <ele>40</ele>
        <time>2019-08-09T09:21:56.126Z</time>
      </trkpt>
      <trkpt lat="47.31563" lon="0.45459">
        <ele>40</ele>
        <time>2019-08-09T09:22:13.308Z</time>
      </trkpt>
      <trkpt lat="47.31614" lon="0.45368">
        <ele>41</ele>
        <time>2019-08-09T09:22:53.361Z</time>
      </trkpt>
      <trkpt lat="47.31624" lon="0.45441">
        <ele>40</ele>
        <time>2019-08-09T09:23:18.625Z</time>
      </trkpt>
      <trkpt lat="47.31704" lon="0.45585">
        <ele>44</ele>
        <time>2019-08-09T09:24:21.781Z</time>
      </trkpt>
      <trkpt lat="47.3172" lon="0.45631">
        <ele>44</ele>
        <time>2019-08-09T09:24:39.319Z</time>
      </trkpt>
      <trkpt lat="47.31742" lon="0.45678">
        <ele>43</ele>
        <time>2019-08-09T09:24:58.694Z</time>
      </trkpt>
      <trkpt lat="47.31765" lon="0.45721">
        <ele>42</ele>
        <time>2019-08-09T09:25:17.274Z</time>
      </trkpt>
      <trkpt lat="47.31781" lon="0.4576">
        <ele>41</ele>
        <time>2019-08-09T09:25:32.738Z</time>
      </trkpt>
      <trkpt lat="47.31794" lon="0.4582">
        <ele>41</ele>
        <time>2019-08-09T09:25:54.105Z</time>
      </trkpt>
      <trkpt lat="47.31807" lon="0.4586">
        <ele>42</ele>
        <time>2019-08-09T09:26:09.152Z</time>
      </trkpt>
      <trkpt lat="47.31827" lon="0.4589">
        <ele>42</ele>
        <time>2019-08-09T09:26:23.425Z</time>
      </trkpt>
      <trkpt lat="47.31833" lon="0.45921">
        <ele>42</ele>
        <time>2019-08-09T09:26:34.361Z</time>
      </trkpt>
      <trkpt lat="47.31845" lon="0.45947">
        <ele>42</ele>
        <time>2019-08-09T09:26:45.031Z</time>
      </trkpt>
      <trkpt lat="47.31874" lon="0.46009">
        <ele>44</ele>
        <time>2019-08-09T09:27:10.583Z</time>
      </trkpt>
      <trkpt lat="47.31895" lon="0.46014">
        <ele>43</ele>
        <time>2019-08-09T09:27:21.227Z</time>
      </trkpt>
      <trkpt lat="47.31911" lon="0.46024">
        <ele>43</ele>
        <time>2019-08-09T09:27:29.922Z</time>
      </trkpt>
      <trkpt lat="47.31923" lon="0.46042">
        <ele>42</ele>
        <time>2019-08-09T09:27:38.486Z</time>
      </trkpt>
      <trkpt lat="47.31946" lon="0.46084">
        <ele>44</ele>
        <time>2019-08-09T09:27:56.801Z</time>
      </trkpt>
      <trkpt lat="47.3198" lon="0.46148">
        <ele>45</ele>
        <time>2019-08-09T09:28:24.382Z</time>
      </trkpt>
      <trkpt lat="47.31997" lon="0.46189">
        <ele>46</ele>
        <time>2019-08-09T09:28:40.685Z</time>
      </trkpt>
      <trkpt lat="47.32008" lon="0.46212">
        <ele>47</ele>
        <time>2019-08-09T09:28:50.233Z</time>
      </trkpt>
      <trkpt lat="47.32021" lon="0.4623">
        <ele>47</ele>
        <time>2019-08-09T09:28:59.155Z</time>
      </trkpt>
      <trkpt lat="47.32034" lon="0.46248">
        <ele>47</ele>
        <time>2019-08-09T09:29:08.077Z</time>
      </trkpt>
      <trkpt lat="47.32048" lon="0.46261">
        <ele>47</ele>
        <time>2019-08-09T09:29:16.355Z</time>
      </trkpt>
      <trkpt lat="47.32072" lon="0.46285">
        <ele>47</ele>
        <time>2019-08-09T09:29:30.863Z</time>
      </trkpt>
      <trkpt lat="47.32087" lon="0.46302">
        <ele>46</ele>
        <time>2019-08-09T09:29:40.328Z</time>
      </trkpt>
      <trkpt lat="47.32092" lon="0.46306">
        <ele>46</ele>
        <time>2019-08-09T09:29:43.174Z</time>
      </trkpt>
      <trkpt lat="47.32112" lon="0.46328">
        <ele>46</ele>
        <time>2019-08-09T09:29:55.658Z</time>
      </trkpt>
      <trkpt lat="47.32153" lon="0.46373">
        <ele>44</ele>
        <time>2019-08-09T09:30:21.229Z</time>
      </trkpt>
      <trkpt lat="47.32199" lon="0.46431">
        <ele>43</ele>
        <time>2019-08-09T09:30:51.508Z</time>
      </trkpt>
      <trkpt lat="47.3221" lon="0.46447">
        <ele>43</ele>
        <time>2019-08-09T09:30:59.238Z</time>
      </trkpt>
      <trkpt lat="47.32233" lon="0.46477">
        <ele>43</ele>
        <time>2019-08-09T09:31:14.600Z</time>
      </trkpt>
      <trkpt lat="47.32269" lon="0.46529">
        <ele>41</ele>
        <time>2019-08-09T09:31:39.811Z</time>
      </trkpt>
      <trkpt lat="47.32313" lon="0.46578">
        <ele>41</ele>
        <time>2019-08-09T09:32:07.397Z</time>
      </trkpt>
      <trkpt lat="47.3234" lon="0.46619">
        <ele>42</ele>
        <time>2019-08-09T09:32:26.786Z</time>
      </trkpt>
      <trkpt lat="47.32358" lon="0.46649">
        <ele>42</ele>
        <time>2019-08-09T09:32:40.375Z</time>
      </trkpt>
      <trkpt lat="47.32382" lon="0.46688">
        <ele>43</ele>
        <time>2019-08-09T09:32:58.241Z</time>
      </trkpt>
      <trkpt lat="47.32417" lon="0.46717">
        <ele>42</ele>
        <time>2019-08-09T09:33:18.327Z</time>
      </trkpt>
      <trkpt lat="47.32459" lon="0.46748">
        <ele>41</ele>
        <time>2019-08-09T09:33:41.826Z</time>
      </trkpt>
      <trkpt lat="47.32492" lon="0.46784">
        <ele>41</ele>
        <time>2019-08-09T09:34:02.363Z</time>
      </trkpt>
      <trkpt lat="47.32518" lon="0.46831">
        <ele>41</ele>
        <time>2019-08-09T09:34:22.939Z</time>
      </trkpt>
      <trkpt lat="47.32529" lon="0.46855">
        <ele>42</ele>
        <time>2019-08-09T09:34:32.765Z</time>
      </trkpt>
      <trkpt lat="47.32557" lon="0.46896">
        <ele>43</ele>
        <time>2019-08-09T09:34:52.505Z</time>
      </trkpt>
      <trkpt lat="47.32574" lon="0.46913">
        <ele>44</ele>
        <time>2019-08-09T09:35:02.781Z</time>
      </trkpt>
      <trkpt lat="47.32639" lon="0.47062">
        <ele>43</ele>
        <time>2019-08-09T09:36:02.879Z</time>
      </trkpt>
      <trkpt lat="47.32669" lon="0.47071">
        <ele>43</ele>
        <time>2019-08-09T09:36:18.198Z</time>
      </trkpt>
      <trkpt lat="47.32694" lon="0.4707">
        <ele>42</ele>
        <time>2019-08-09T09:36:30.712Z</time>
      </trkpt>
      <trkpt lat="47.32719" lon="0.47067">
        <ele>42</ele>
        <time>2019-08-09T09:36:43.263Z</time>
      </trkpt>
      <trkpt lat="47.32744" lon="0.47063">
        <ele>42</ele>
        <time>2019-08-09T09:36:55.846Z</time>
      </trkpt>
      <trkpt lat="47.32772" lon="0.47047">
        <ele>41</ele>
        <time>2019-08-09T09:37:10.871Z</time>
      </trkpt>
      <trkpt lat="47.32792" lon="0.47037">
        <ele>41</ele>
        <time>2019-08-09T09:37:21.438Z</time>
      </trkpt>
      <trkpt lat="47.32813" lon="0.47032">
        <ele>41</ele>
        <time>2019-08-09T09:37:32.082Z</time>
      </trkpt>
      <trkpt lat="47.32824" lon="0.47053">
        <ele>41</ele>
        <time>2019-08-09T09:37:41.083Z</time>
      </trkpt>
      <trkpt lat="47.32872" lon="0.47082">
        <ele>41</ele>
        <time>2019-08-09T09:38:07.037Z</time>
      </trkpt>
      <trkpt lat="47.32937" lon="0.47124">
        <ele>40</ele>
        <time>2019-08-09T09:38:42.544Z</time>
      </trkpt>
      <trkpt lat="47.32926" lon="0.4707">
        <ele>40</ele>
        <time>2019-08-09T09:39:01.667Z</time>
      </trkpt>
      <trkpt lat="47.32944" lon="0.4703">
        <ele>40</ele>
        <time>2019-08-09T09:39:17.951Z</time>
      </trkpt>
      <trkpt lat="47.33146" lon="0.46935">
        <ele>40</ele>
        <time>2019-08-09T09:41:04.038Z</time>
      </trkpt>
    </trkseg>
  </trk>
</gpx>